Вернуться в каталог

BREEZE-M DEB

LostHEO
NORAD 39934·DEBRIS·🇷🇺 Russia

Запущен Feb 28, 2006 с Baikonur Cosmodrome

Loading…

Ближайшие Пролёты (ближайшие 24 часа)

TLE

УстаревшееSource: Space-Track

Эпоха: Jun 23, 2013, 20:06 UTC

1 39934U 06006DG  13174.83813748  .00048935  00000-0  11119-1 0  9991
2 39934  51.9938  12.1867 4178105 211.2021 110.7155  6.98403534 78417

Отслеживайте BREEZE-M DEB в реальном времени с AllMySat

Download on the App Store